Regional Weather Roundup
Issued by NWS Goodland, KS

Home | Current Version | Previous Version | Graphics & Text | Print | Product List | Glossary On
Versions: 1 2 3 4 5 6 7 8 9 10 11 12 13 14 15 16 17 18 19 20 21 22 23 24 25 26 27 28 29 30 31 32 33 34 35 36 37 38 39 40 41 42 43 44 45 46 47 48 49 50
000
ASUS43 KGLD 201659
RWRGLD

GOODLAND FORECAST AREA HOURLY WEATHER ROUNDUP
NATIONAL WEATHER SERVICE GOODLAND KS
1100 AM MDT MON OCT 20 2014

...OFFICIAL OBSERVATIONS...

CITY           SKY/WX    TMP DP  RH WIND       PRES   REMARKS
GOODLAND KS    SUNNY     69  45  41 S10       30.18S
HILL CITY KS   SUNNY     70  50  49 E3        30.14S
IMPERIAL NEB   SUNNY     67  44  43 VRB6      30.16S
MCCOOK NEB     SUNNY     63  44  50 CALM      30.15F
AKRON CO       SUNNY     71  34  25 S15       30.17S
BURLINGTON CO  SUNNY     69  41  36 S14G22    30.19R
LIMON CO       SUNNY     65  36  34 S10       30.22S
$$

...UNOFFICIAL OBSERVATIONS...

CITY           SKY/WX    TMP DP  RH WIND       PRES   REMARKS
COLBY KS       SUNNY     68  52  56 E6        30.18S HAZE
GOVE KS          N/A     68  32  26 MISG        N/A
NORTON KS      SUNNY     70  39  32 E6        30.13S
SHARON SPRINGS   N/A     67  52  57 S7          N/A
TRENTON NEB      N/A     69  32  25 CALM        N/A
KIT CARSON CO    N/A     64  46  53 N5          N/A
YUMA CO          N/A     70  36  28 S7G14       N/A
$$



USA.gov is the U.S. government's official web portal to all federal, state and local government web resources and services.